Location: Newark
(40.4881°N, 5.6117°W)
Time: 00:01:53
(UTC+00:00)

N. Korean satellite - Pass Details

Date: 24 March 2019
Orbit: 457 x 508 km, 97.2° (Epoch: 22 April)

Event Time Altitude Azimuth Distance (km) Brightness Sun altitude
Rises 05:25:02 0° 36° (NE) 2,534 11.0 -11.2°
Reaches altitude 10° 05:28:25 10° 72° (ENE) 1,662 10.8 -10.6°
Maximum altitude 05:29:37 11° 91° (E) 1,580 10.6 -10.4°
Drops below altitude 10° 05:30:50 10° 111° (ESE) 1,667 10.3 -10.1°
Sets 05:34:14 0° 147° (SSE) 2,555 10.6 -9.5°
